星链-5904 (STARLINK-5904 )

导读 | 豆包AI

STARLINK-5904是美国SpaceX公司星链卫星互联网星座的成员,于2023年3月24日发射升空,属于星链项目大规模组网的一环。作为低轨通信卫星,它运行在近地轨道,旨在为全球提供高速低延迟互联网服务,弥补地面网络覆盖盲区,推动偏远地区互联网接入能力提升,同时也参与星链星座的服务扩展与网络优化。

Basic Information
目录编号:
55997
目录名称:
STARLINK-5904
国际标识:
2023-042M
轨道中心:
EARTH
卫星名称:
星链-5904
卫星全名:
星链-5904 (STARLINK-5904 )
卫星状态:
已陨落 最后检测时间 2024-06-23
发射日期:
2023-03-24 UTC
国别 :
美国 (US)
星等 :
--
Orbit Information
数据来源 国际轨道数据
星历时间: 2024-06-23T21:51:33+0800
轨道信息已过期701天
半长轴: 6551.452km
偏心率: 0.0004585
轨道倾角: 42.989°
近地点辐角 237.426°
升交点赤经 159.806°
平近点角 203.667°
近地点: 170.313km
远地点: 176.321km
周期: 87.956分钟
每日圈数: 16.371802
Detailed Information
固有亮度:
5
最大亮度:
2.5
卫星平台:
Starlink v1.5
覆盖范围:
全球
运营商:
太空探索技术公司
运营商所在国:
美国
制造商(研发单位):
太空探索技术公司
制造商所在国:
美国
使用方式:
暂无
Satellite Introduction
星链(Starlink)计划是由太空探索技术公司(SpaceX)提出的一个巨型低轨卫星互联网星座项目,计划在2019年至2024年间在太空搭建由约1.2万颗卫星组成的“星链”网络,其中1584颗将部署在地球上空550千米处的近地轨道,并从2020年开始工作。该卫星已陨落。